sat.trackr.live / text

‹ back to catalog

STARLINK-4402

NORAD 53509 · 2022-099AW

PAYLOAD ACTIVE UNKNOWN

§ Identity

Operator
Country
US
Launch date
2022-08-12
Launch site
AFWTR
Launch vehicle
Mass (kg)
RCS (m²)

Purposes: comms

External: N2YO · Heavens-Above · Gunter

§ Orbital elements

Epoch: 2026-05-25T04:00:03.998880Z

Period
93.52 min
Inclination
97.6044°
Eccentricity
0.0001643
Mean motion
15.39831157 rev/d
Perigee alt
445.5 km
Apogee alt
447.7 km
Semi-major
6,824.7 km
B*
8.7848e-3
RAAN
267.2033°
Arg perigee
69.0590°
Mean anomaly
136.4751°
Rev number
572

§ Raw data

STARLINK-44021 53509U 22099AW  26145.16671295  .00365118  00000+0  87848-2 0  99992 53509  97.6044 267.2033 0001643  69.0590 136.4751 15.39831157  5724

JSON: /api/v1/satellites/53509 · /tle

For live sub-satellite position, see the globe view (requires WebGL).

§ Visibility from observer

Set your observer location to see the next 7 days of passes ≥ 10°. The values pass through the URL so the page stays shareable.

No JS? Fill the form by hand. The geolocation button needs JavaScript.